Regional Weather Roundup
Issued by NWS Green Bay, WI

Home | Current Version | Previous Version | Text Only | Print | Product List | Glossary On
Versions: 1 2 3 4 5 6 7 8 9 10 11 12 13 14 15 16 17 18 19 20 21 22 23 24 25 26 27 28 29 30 31 32 33 34 35 36 37 38 39 40 41 42 43 44 45 46 47 48 49 50
000
ASUS43 KGRB 240811
RWRGRB

NORTH-CENTRAL AND NORTHEAST WISCONSIN REGIONAL WEATHER ROUNDUP
NATIONAL WEATHER SERVICE GREEN BAY WI
200 AM CST TUE JAN 24 2017

WIZ005-009-010>012-018-019-240900-
NORTH CENTRAL WISCONSIN

CITY           SKY/WX    TMP DP  RH WIND       PRES   REMARKS
IRONWOOD       CLOUDY    33  33 100 W5        29.81R
MANITOWISH WTR CLOUDY    32  32 100 W3        29.79R
ARBOR VITAE    LGT SNOW  36  35  96 N3        29.79R VSB 3/4
EAGLE RIVER    CLOUDY    33  33 100 NW5       29.78R FOG
LAND O LAKES   CLOUDY    34  34 100 NW3       29.79S FOG
RHINELANDER    CLOUDY    35  35 100 CALM      29.79R FOG
PHILLIPS       CLOUDY    32  32 100 CALM      29.80R
ANTIGO         FOG       33  33 100 NW3       29.79R VSB 1/2
TOMAHAWK       FOG       33  32  98 W3        29.80R VSB 1
MERRILL        FOG       34  34 100 CALM        N/A  VSB 3/4
$$

WIZ013-073-240900-
NORTHEAST WISCONSIN

CITY           SKY/WX    TMP DP  RH WIND       PRES   REMARKS
IRON MOUNTAIN  FOG       34  32  92 NW3       29.76S VSB 1/2
MARINETTE      NOT AVBL
OCONTO         CLOUDY    33  33  99 CALM      29.79R VSB 1/2
$$

WIZ017-030-035>037-045-240900-
CENTRAL WISCONSIN

CITY           SKY/WX    TMP DP  RH WIND       PRES   REMARKS
MEDFORD        CLOUDY    32  31  98 CALM      29.80S
WAUSAU         CLOUDY    34  33  96 NW7       29.80R
MOSINEE        CLOUDY    32  32 100 NW6       29.82R FOG
MARSHFIELD     CLOUDY    33  31  92 NW6       29.81R FOG
WISC RAPIDS    CLOUDY    34  33  96 NW5       29.83R
STEVENS POINT  DRZL/FOG  32  32 100 NW6       29.82R VSB 3/4
WAUPACA        CLOUDY    37  36  96 CALM      29.81S FOG
SHAWANO        CLOUDY    37  35  93 W3        29.80R
CLINTONVILLE   CLOUDY    34  34 100 NW6       29.80R
WAUTOMA        CLOUDY    34  33  96 W8        29.82S FOG
$$

WIZ038-039-048-051-240900-
FOX VALLEY

CITY           SKY/WX    TMP DP  RH WIND       PRES   REMARKS
NWS GREEN BAY  CLOUDY    36  35  96 W5        29.79R
APPLETON       CLOUDY    34  34 100 W7        29.78R FOG
OSHKOSH        CLOUDY    35  33  92 W5        29.80R FOG
FOND DU LAC    CLOUDY    36  32  85 W6        29.80S
$$

WIZ022-050-052-240900-
EAST CENTRAL WISCONSIN

CITY           SKY/WX    TMP DP  RH WIND       PRES   REMARKS
EPHRAIM        CLOUDY    32  32 100 CALM      29.77R FOG
WASHINGTON ISL FOG       33  33 100 CALM      29.77S VSB 1/2
STURGEON BAY   FOG       32  32 100 N3        29.79S VSB 1/4
MANITOWOC      CLOUDY    35  34  96 CALM      29.80R
SHEBOYGAN      CLOUDY    35  33  92 W6        29.79R
$$

LMZ563-521-522-541>543-240900-
LAKESHORE

STATION/POSITION TIME  TEMP    WIND        PRES    VSBY  WAVE
                       AIR SEA DIR/SP/G                  HT/PER
                 (UTC) (F)     (DEG/KT/KT) (MB)    (MI)  (FT/S)
SHEBOYGAN LKSHOR 0800   36     270/  8/ 10 1009.0R
KEWAUNEE LKSHORE 0748   35      CALM  /  3 1008.1S
NORTHPORT PIER   0740   33     310/  3/  6 1008.5S
SISTER BAY LKSHO 0735   32        CALM       N/A
MENOMINEE LKSHOR 0748   33     300/  3/  3 1007.9R
$$



USA.gov is the U.S. government's official web portal to all federal, state and local government web resources and services.